Doylestown, PA

5:19 AM EDT on May 30, 2017 (GMT -0400)
Doylestown

Weather History for KDYL - November, 2013

Change the Weather History Date:

Sunday, November 17, 2013

  Actual Average (KTTN) Record (KTTN)
Temperature  
Mean Temperature 56 °F -  
Max Temperature 64 °F 51 °F 72 °F (1896)
Min Temperature 48 °F 33 °F 19 °F (1933)
Degree Days  
Heating Degree Days 9    
Growing Degree Days 6 (Base 50)    
Moisture  
Dew Point 52 °F    
Average Humidity 90    
Maximum Humidity 100    
Minimum Humidity 73    
Precipitation  
Precipitation 0.00 in - - ()
Sea Level Pressure  
Sea Level Pressure 30.09 in    
Wind  
Wind Speed 2 mph (SSE)    
Max Wind Speed 9 mph    
Max Gust Speed 21 mph    
Visibility 8 miles    
Events      
Averages and records for this station are not official NWS values.
T = Trace of Precipitation, MM = Missing Value Source: NWS Daily Summary

Daily Weather History Graph

Daily Weather History Graph

Search for Another Location

Airport or City:

Trip Planner

Search our weather history database for the weather conditions in past years. The results will help you decide how hot, cold, wet, or windy it might be!

Date:

Astronomy

Nov. 17, 2013 Rise Set
Actual Time 6:48 AM EST 4:41 PM EST
Civil Twilight 6:19 AM EST 5:10 PM EST
Nautical Twilight 5:46 AM EST 5:44 PM EST
Astronomical Twilight 5:14 AM EST 6:16 PM EST
Moon 4:56 PM EST (11/17) 6:40 AM EST (11/17)
Length of Visible Light 10h 51m
Length of Day
9h 52m
Full, 100% of the Moon is Illuminated
Nov 17
Full
Nov 25
Last Quarter
Dec 2
New
Dec 9
First Quarter
Dec 17
Full

Hourly Weather History & Observations

Time (EST) Temp. Dew Point Humidity Pressure Visibility Wind Dir Wind Speed Gust Speed Precip Events Conditions
12:15 AM 48.0 °F 46.9 °F 96% 30.25 in 10.0 mi Calm Calm - N/A   Overcast
12:24 AM 48.0 °F 46.9 °F 96% 30.25 in 10.0 mi Calm Calm - N/A   Overcast
12:36 AM 48.0 °F 46.9 °F 96% 30.25 in 10.0 mi Calm Calm - N/A   Overcast
12:50 AM 48.2 °F 46.4 °F 93% 30.25 in 8.0 mi Calm Calm - N/A   Overcast
12:54 AM 48.0 °F 46.9 °F 96% 30.26 in 8.0 mi Calm Calm - N/A   Overcast
1:42 AM 48.0 °F 48.0 °F 100% 30.23 in 6.0 mi Calm Calm - N/A   Overcast
1:54 AM 48.0 °F 48.0 °F 100% 30.24 in 6.0 mi Calm Calm - N/A   Overcast
2:06 AM 48.0 °F 48.0 °F 100% 30.23 in 8.0 mi Calm Calm - N/A   Overcast
2:54 AM 48.0 °F 48.0 °F 100% 30.25 in 8.0 mi Calm Calm - N/A   Overcast
3:54 AM 48.0 °F 48.0 °F 100% 30.22 in 7.0 mi Calm Calm - N/A   Overcast
4:54 AM 48.0 °F 48.0 °F 100% 30.22 in 4.0 mi NNE 3.5 mph - N/A   Overcast
5:21 AM 48.0 °F 48.0 °F 100% 30.20 in 4.0 mi Calm Calm - N/A   Overcast
5:35 AM 48.0 °F 48.0 °F 100% 30.20 in 3.0 mi Calm Calm - N/A   Overcast
5:54 AM 48.0 °F 48.0 °F 100% 30.20 in 4.0 mi Calm Calm - N/A   Overcast
6:14 AM 48.0 °F 48.0 °F 100% 30.19 in 6.0 mi Calm Calm - N/A   Overcast
6:54 AM 48.0 °F 48.0 °F 100% 30.20 in 6.0 mi Calm Calm - N/A   Overcast
7:00 AM 48.0 °F 48.0 °F 100% 30.19 in 5.0 mi Calm Calm - N/A   Overcast
7:54 AM 48.9 °F 48.9 °F 100% 30.20 in 4.0 mi Calm Calm - N/A   Overcast
8:10 AM 48.9 °F 48.9 °F 100% 30.19 in 5.0 mi Calm Calm - N/A   Overcast
8:54 AM 51.1 °F 51.1 °F 100% 30.19 in 5.0 mi Calm Calm - N/A   Overcast
9:50 AM 53.6 °F 51.8 °F 94% 30.18 in 7.0 mi Calm Calm - N/A   Overcast
9:54 AM 53.1 °F 51.1 °F 93% 30.19 in 8.0 mi Calm Calm - N/A   Overcast
10:23 AM 54.0 °F 52.0 °F 93% 30.16 in 9.0 mi Calm Calm - N/A   Overcast
10:54 AM 55.0 °F 52.0 °F 89% 30.16 in 10.0 mi Variable 3.5 mph - N/A   Overcast
11:38 AM 57.9 °F 53.1 °F 84% 30.12 in 10.0 mi SSE 4.6 mph - N/A   Overcast
11:54 AM 59.0 °F 54.0 °F 83% 30.11 in 10.0 mi Variable 4.6 mph - N/A   Overcast
12:16 PM 60.1 °F 55.0 °F 83% 30.09 in 10.0 mi SSE 6.9 mph - N/A   Scattered Clouds
12:34 PM 61.0 °F 55.0 °F 81% 30.09 in 10.0 mi SE 4.6 mph - N/A   Mostly Cloudy
12:54 PM 62.1 °F 55.0 °F 78% 30.09 in 10.0 mi SE 5.8 mph - N/A   Overcast
1:54 PM 63.0 °F 55.0 °F 75% 30.05 in 10.0 mi Variable 5.8 mph - N/A   Mostly Cloudy
2:54 PM 63.0 °F 55.0 °F 75% 30.03 in 10.0 mi South 4.6 mph - N/A   Overcast
3:03 PM 64.0 °F 55.0 °F 73% 30.02 in 10.0 mi Variable 5.8 mph - N/A   Overcast
3:17 PM 64.0 °F 55.0 °F 73% 30.02 in 10.0 mi Variable 4.6 mph - N/A   Overcast
3:54 PM 63.0 °F 55.0 °F 75% 30.01 in 10.0 mi South 4.6 mph - N/A   Partly Cloudy
4:13 PM 63.0 °F 55.0 °F 75% 29.99 in 10.0 mi Variable 4.6 mph - N/A   Mostly Cloudy
4:54 PM 62.1 °F 54.0 °F 75% 29.98 in 10.0 mi SSE 6.9 mph - N/A   Mostly Cloudy
5:08 PM 61.0 °F 54.0 °F 78% 29.97 in 10.0 mi SSE 6.9 mph - N/A   Scattered Clouds
5:54 PM 61.0 °F 54.0 °F 78% 29.97 in 10.0 mi South 5.8 mph - N/A   Unknown
6:24 PM 60.1 °F 54.0 °F 80% 29.96 in 10.0 mi SSE 6.9 mph - N/A   Mostly Cloudy
6:34 PM 60.1 °F 54.0 °F 80% 29.95 in 10.0 mi South 6.9 mph - N/A   Scattered Clouds
6:54 PM 60.1 °F 55.0 °F 83% 29.94 in 10.0 mi SSE 6.9 mph - N/A   Partly Cloudy
7:54 PM 60.1 °F 55.9 °F 86% 29.92 in 10.0 mi SSE 4.6 mph - N/A   Mostly Cloudy
8:54 PM 60.1 °F 57.0 °F 90% 29.88 in 10.0 mi South 6.9 mph - N/A   Mostly Cloudy
9:10 PM 60.1 °F 57.0 °F 90% 29.88 in - South 9.2 mph - N/A   Unknown
9:41 PM 60.1 °F 57.9 °F 93% 29.86 in 10.0 mi South 9.2 mph 20.7 mph N/A   Overcast
9:54 PM 60.1 °F 57.9 °F 93% 29.85 in 10.0 mi South 9.2 mph - N/A   Overcast
10:54 PM 60.1 °F 57.9 °F 93% 29.81 in 10.0 mi South 8.1 mph 16.1 mph N/A   Overcast
11:54 PM 60.1 °F 57.9 °F 93% 29.77 in 10.0 mi SSE 9.2 mph - N/A   Overcast